This is the latest recevied weather packets stored in our database for station/object K4OAM-13. If no packets are shown the sender has not sent any weather packets the latest 10 day(s).
| Time | Temp. | Humidity | Pressure | Rain* | Wind** | Luminosity | Snow |
|---|---|---|---|---|---|---|---|
| 1777975558 | 7.78° C | 90% | 1010.3 hPa | - | - | - | - |
| 1777974958 | 7.78° C | 90% | 1010 hPa | - | - | - | - |
| 1777974358 | 7.78° C | 88% | 1010.2 hPa | - | - | - | - |
| 1777973758 | 7.78° C | 88% | 1010 hPa | - | - | - | - |
| 1777973157 | 8.33° C | 87% | 1010.1 hPa | - | - | - | - |
| 1777972557 | 7.78° C | 89% | 1010.1 hPa | - | - | - | - |
| 1777971958 | 8.33° C | 86% | 1009.7 hPa | - | - | - | - |
| 1777971357 | 8.33° C | 86% | 1009.9 hPa | - | - | - | - |
| 1777970758 | 7.78° C | 88% | 1010.2 hPa | - | - | - | - |
| 1777970158 | 7.78° C | 86% | 1010 hPa | - | - | - | - |
| 1777969558 | 7.78° C | 86% | 1010.1 hPa | - | - | - | - |
| 1777968958 | 7.78° C | 87% | 1010 hPa | - | - | - | - |
| 1777968358 | 8.33° C | 84% | 1009.8 hPa | - | - | - | - |
| 1777967757 | 8.33° C | 83% | 1009.9 hPa | - | - | - | - |
| 1777967158 | 8.33° C | 81% | 1010 hPa | - | - | - | - |
| 1777966557 | 8.33° C | 80% | 1010 hPa | - | - | - | - |
| 1777965957 | 8.33° C | 80% | 1010.1 hPa | - | - | - | - |
| 1777965357 | 8.33° C | 80% | 1010.1 hPa | - | - | - | - |
| 1777964758 | 8.33° C | 80% | 1010.2 hPa | - | - | - | - |
| 1777964157 | 8.33° C | 80% | 1010.3 hPa | - | - | - | - |
| 1777963557 | 8.33° C | 81% | 1010.3 hPa | - | - | - | - |
| 1777962957 | 7.78° C | 81% | 1010.2 hPa | - | - | - | - |
| 1777962357 | 7.78° C | 81% | 1010 hPa | - | - | - | - |
| 1777961758 | 8.33° C | 80% | 1009.9 hPa | - | - | - | - |
| 1777961157 | 8.33° C | 79% | 1009.9 hPa | - | - | - | - |
* Rain since midnight (hover to see other rain measurements)
** Current wind speed in m/s (hover to see current wind gust speed)